CZ-6A DEB, 64628

Orbit data source: Space-Track

CZ-6A DEB, 64628 is space debris in LEO originally from a launch on Tue, 06 Aug 2024 UTC launched from the Taiyaun Space Center, China (TSC). Debris objects in space refer to the collection of defunct objects orbiting the Earth. Examples of debris include non-operational satellites, rocket bodies, and fragments generated from explosions, collisions, or faulty payload assembly.

Loading next visibility...
Identifier
64628, 2024-140ADS
Orbit
LEO
Country
Flag of CNCN / PRC
Related business
Manufacturer
SAST
Mission
Spacecraft
Bus & Motor
Unknown
Mass
Unknown
Launch date (UTC)
2024-08-06 (2 years ago)
Launch vehicle
Unknown
Launch site
Taiyaun Space Center, China (TSC)
Object type
Payload
Rocket body
Debris
Shape & HBR
Unknown shape, 0.1 m
Radar Cross Section
Small (<0.1 m²)

Expand to show TLE details & history
Last TLE update: 2 days ago

TLE from 2 days ago
0 CZ-6A DEB
1 64628U 24140ADS 26170.28372859  .00118082  00000-0  31085-2 0  9996
2 64628  89.0356 268.7977 0045848  92.4261 268.2244 15.37026773 95854
Epoch: 2026-06-19T06:48Z
TLE epoch observation values (Epoch: 2026-06-19T06:48:34.150Z)
Latitude
0.00001°
Longitude
-100.85951°
Altitude
459.241 km
Speed
7.636 km/s
True Right ascension
17h 55m 11s
True Declination
0° 00' 00"
Sunlit
Object was in full shadow at epoch
Visualization orbit readout
Latitude
Unknown
Longitude
Unknown
Altitude
Unknown
Speed
Unknown
Apparent Right ascension
Unknown
Apparent Declination
Unknown
Sunlit
N/A
Visualization observer readout
Local Sidereal Time
07:19:45
Azimuth
Unknown
Elevation
Unknown
Doppler factor
Unknown
Orbital elements
Apogee altitude
483.006 km
Perigee altitude
420.379 km
Semi-major axis
6,829.829 km
Eccentricity
0.00458
Inclination
89.0356°
RAAN
268.7977°
Arg. of periapsis
92.4261°
True anomaly
267.69937°
Mean anomaly
268.2244°
Eccentric anomaly
267.96188°
Mean motion
3.84528 °/min
Orbital period
93.62 mins
BSTAR
0.0031085
Loading maneuver chart data...
Computing Atmospheric mass density...
Loading historical data...
Loading historical data...
Loading historical data...
Loading historical data...
Loading historical data...
Loading historical data...
Loading historical data...

Documentation

Showing up to 5 results
|